Location: Chandolas
(44.4033°N, 4.2533°E)
Time: 12:27:48
(UTC+00:00)

H-2A R/B - Visible Passes

Search period start: 18 February 2020 00:00
Search period end: 28 February 2020 00:00
Orbit: 529 x 653 km, 98.3° (Epoch: 17 February)

Date Brightness Start Highest point End Pass type
(mag) Time Alt. Az. Time Alt. Az. Time Alt. Az.
18 Feb 4.1 03:51:55 10° NNE 03:55:58 35° E 03:57:24 28° SE visible
18 Feb 3.6 05:27:42 10° NNW 05:31:17 25° WNW 05:34:00 14° WSW visible
19 Feb 3.7 04:00:11 10° NNE 04:04:23 42° E 04:06:15 28° SSE visible
19 Feb 3.9 05:36:16 10° NNW 05:39:35 21° WNW 05:42:51 10° WSW visible
20 Feb 3.4 04:08:27 10° NNE 04:12:47 52° E 04:15:05 26° SSE visible
20 Feb 4.1 05:44:53 10° NNW 05:47:53 18° WNW 05:50:55 10° WSW visible
21 Feb 3.0 04:16:46 10° NNE 04:21:11 63° ESE 04:23:55 23° S visible
21 Feb 4.2 05:53:35 10° NNW 05:56:11 15° WNW 05:58:47 10° W visible
22 Feb 2.7 04:25:06 10° NNE 04:29:34 77° ESE 04:32:45 19° S visible
22 Feb 4.4 06:02:24 10° NNW 06:04:27 13° WNW 06:06:31 10° W visible
23 Feb 2.5 04:33:28 10° NNE 04:37:57 88° WNW 04:41:35 16° SSW visible
24 Feb 5.6 03:08:35 10° ENE 03:10:24 12° E 03:12:12 10° ESE visible
24 Feb 2.5 04:41:52 10° N 04:46:19 73° WNW 04:50:25 12° SSW visible
25 Feb 5.5 03:16:18 10° NE 03:18:51 15° E 03:21:25 10° SE visible
25 Feb 2.6 04:50:16 10° N 04:54:41 60° WNW 04:59:07 10° SSW visible
26 Feb 5.3 03:24:15 10° NE 03:27:19 18° E 03:30:24 10° SE visible
26 Feb 2.8 04:58:41 10° N 05:03:02 49° WNW 05:07:22 10° SW visible
27 Feb 5.0 03:32:18 10° NE 03:35:46 21° E 03:39:13 10° SE visible
27 Feb 3.0 05:07:09 10° N 05:11:23 41° WNW 05:15:36 10° SW visible
